Time,TemperatureF,DewpointF,PressureIn,WindDirection,WindDirectionDegrees,WindSpeedMPH,WindSpeedGustMPH,Humidity,HourlyPrecipIn,Conditions,Clouds,dailyrainin,SoftwareType,DateUTC
2013-07-20 00:05:00,71.0,66.0,29.85,NNE,33,0.0,1.0,84,0.00,,,0.00,weatherlink.com 1.10,2013-07-20 05:05:00,
2013-07-20 00:20:00,70.5,66.0,29.85,NNE,33,0.0,0.0,84,0.00,,,0.00,weatherlink.com 1.10,2013-07-20 05:20:00,
2013-07-20 00:35:00,70.1,65.0,29.85,North,11,0.0,2.0,85,0.00,,,0.00,weatherlink.com 1.10,2013-07-20 05:35:00,
2013-07-20 00:50:00,69.7,65.0,29.86,North,11,0.0,0.0,85,0.00,,,0.00,weatherlink.com 1.10,2013-07-20 05:50:00,
2013-07-20 01:05:00,69.0,65.0,29.86,North,11,0.0,0.0,87,0.00,,,0.00,weatherlink.com 1.10,2013-07-20 06:05:00,
2013-07-20 01:20:00,68.5,65.0,29.85,North,11,0.0,1.0,88,0.00,,,0.00,weatherlink.com 1.10,2013-07-20 06:20:00,
2013-07-20 01:35:00,68.2,65.0,29.85,NNE,23,0.0,3.0,88,0.00,,,0.00,weatherlink.com 1.10,2013-07-20 06:35:00,
2013-07-20 01:50:00,68.0,64.0,29.86,NE,53,0.0,0.0,87,0.00,,,0.00,weatherlink.com 1.10,2013-07-20 06:50:00,
2013-07-20 02:05:00,67.5,64.0,29.86,NE,53,0.0,0.0,87,0.00,,,0.00,weatherlink.com 1.10,2013-07-20 07:05:00,
2013-07-20 02:20:00,66.8,63.0,29.86,NE,53,0.0,0.0,87,0.00,,,0.00,weatherlink.com 1.10,2013-07-20 07:20:00,
2013-07-20 02:35:00,65.9,62.0,29.86,NE,53,0.0,0.0,88,0.00,,,0.00,weatherlink.com 1.10,2013-07-20 07:35:00,
2013-07-20 02:50:00,65.1,62.0,29.86,NE,53,0.0,0.0,89,0.00,,,0.00,weatherlink.com 1.10,2013-07-20 07:50:00,
2013-07-20 03:05:00,64.8,62.0,29.86,NE,53,0.0,0.0,90,0.00,,,0.00,weatherlink.com 1.10,2013-07-20 08:05:00,
2013-07-20 03:20:00,64.5,62.0,29.86,NE,53,0.0,0.0,91,0.00,,,0.00,weatherlink.com 1.10,2013-07-20 08:20:00,
2013-07-20 03:35:00,64.1,62.0,29.86,NE,53,0.0,0.0,91,0.00,,,0.00,weatherlink.com 1.10,2013-07-20 08:35:00,
2013-07-20 03:50:00,64.0,62.0,29.85,NE,53,0.0,0.0,93,0.00,,,0.00,weatherlink.com 1.10,2013-07-20 08:50:00,
2013-07-20 04:05:00,63.8,62.0,29.86,NE,53,0.0,0.0,93,0.00,,,0.00,weatherlink.com 1.10,2013-07-20 09:05:00,
2013-07-20 04:20:00,63.6,62.0,29.86,NE,53,0.0,0.0,93,0.00,,,0.00,weatherlink.com 1.10,2013-07-20 09:20:00,
2013-07-20 04:35:00,63.3,61.0,29.86,NE,53,0.0,0.0,93,0.00,,,0.00,weatherlink.com 1.10,2013-07-20 09:35:00,
2013-07-20 04:50:00,62.9,61.0,29.87,NE,53,0.0,0.0,92,0.00,,,0.00,weatherlink.com 1.10,2013-07-20 09:50:00,
2013-07-20 05:05:00,62.7,61.0,29.87,NE,53,0.0,0.0,93,0.00,,,0.00,weatherlink.com 1.10,2013-07-20 10:05:00,
2013-07-20 05:20:00,62.5,61.0,29.88,NE,53,0.0,0.0,93,0.00,,,0.00,weatherlink.com 1.10,2013-07-20 10:20:00,
2013-07-20 05:35:00,62.6,61.0,29.89,NE,53,0.0,0.0,94,0.00,,,0.00,weatherlink.com 1.10,2013-07-20 10:35:00,
2013-07-20 05:50:00,62.5,61.0,29.89,NE,53,0.0,0.0,93,0.00,,,0.00,weatherlink.com 1.10,2013-07-20 10:50:00,
2013-07-20 06:05:00,62.4,61.0,29.89,NE,53,0.0,0.0,94,0.00,,,0.00,weatherlink.com 1.10,2013-07-20 11:05:00,
2013-07-20 06:20:00,62.4,61.0,29.89,NE,53,0.0,0.0,94,0.00,,,0.00,weatherlink.com 1.10,2013-07-20 11:20:00,
2013-07-20 06:35:00,62.3,61.0,29.89,NE,53,0.0,0.0,94,0.00,,,0.00,weatherlink.com 1.10,2013-07-20 11:35:00,
2013-07-20 06:50:00,62.6,61.0,29.89,NE,53,0.0,0.0,95,0.00,,,0.00,weatherlink.com 1.10,2013-07-20 11:50:00,
2013-07-20 07:05:00,62.9,62.0,29.89,NE,53,0.0,0.0,95,0.00,,,0.00,weatherlink.com 1.10,2013-07-20 12:05:00,
2013-07-20 07:20:00,63.4,62.0,29.89,NE,53,0.0,0.0,94,0.00,,,0.00,weatherlink.com 1.10,2013-07-20 12:20:00,
2013-07-20 07:35:00,64.3,63.0,29.90,NE,53,0.0,0.0,94,0.00,,,0.00,weatherlink.com 1.10,2013-07-20 12:35:00,
2013-07-20 07:50:00,65.7,63.0,29.90,NE,53,0.0,0.0,92,0.00,,,0.00,weatherlink.com 1.10,2013-07-20 12:50:00,
2013-07-20 08:05:00,67.4,65.0,29.90,NE,53,0.0,0.0,91,0.00,,,0.00,weatherlink.com 1.10,2013-07-20 13:05:00,
2013-07-20 08:20:00,69.8,66.0,29.91,NE,53,0.0,0.0,86,0.00,,,0.00,weatherlink.com 1.10,2013-07-20 13:20:00,
2013-07-20 08:35:00,72.2,66.0,29.91,NE,53,0.0,1.0,81,0.00,,,0.00,weatherlink.com 1.10,2013-07-20 13:35:00,
2013-07-20 08:51:00,73.6,65.0,29.92,NE,37,0.0,3.0,75,0.00,,,0.00,weatherlink.com 1.10,2013-07-20 13:51:00,
2013-07-20 09:06:00,75.3,66.0,29.92,NE,37,0.0,1.0,72,0.00,,,0.00,weatherlink.com 1.10,2013-07-20 14:06:00,
2013-07-20 09:21:00,76.2,66.0,29.92,NNE,31,1.0,3.0,70,0.00,,,0.00,weatherlink.com 1.10,2013-07-20 14:21:00,
2013-07-20 09:36:00,77.1,66.0,29.93,East,87,0.0,3.0,68,0.00,,,0.00,weatherlink.com 1.10,2013-07-20 14:36:00,
2013-07-20 09:51:00,77.7,65.0,29.93,NNE,28,1.0,3.0,66,0.00,,,0.00,weatherlink.com 1.10,2013-07-20 14:51:00,
2013-07-20 10:06:00,78.5,66.0,29.93,NNE,16,0.0,1.0,66,0.00,,,0.00,weatherlink.com 1.10,2013-07-20 15:06:00,
2013-07-20 10:21:00,78.9,65.0,29.93,SW,221,0.0,2.0,63,0.00,,,0.00,weatherlink.com 1.10,2013-07-20 15:21:00,
2013-07-20 10:36:00,80.0,66.0,29.94,North,350,0.0,3.0,62,0.00,,,0.00,weatherlink.com 1.10,2013-07-20 15:36:00,
2013-07-20 10:51:00,80.7,65.0,29.93,ENE,75,1.0,4.0,59,0.00,,,0.00,weatherlink.com 1.10,2013-07-20 15:51:00,
2013-07-20 11:06:00,80.8,65.0,29.94,NNE,33,0.0,1.0,59,0.00,,,0.00,weatherlink.com 1.10,2013-07-20 16:06:00,
2013-07-20 11:21:00,81.1,62.0,29.94,North,5,0.0,1.0,53,0.00,,,0.00,weatherlink.com 1.10,2013-07-20 16:21:00,
2013-07-20 11:36:00,81.3,65.0,29.94,NNE,13,0.0,4.0,57,0.00,,,0.00,weatherlink.com 1.10,2013-07-20 16:36:00,
2013-07-20 11:51:00,81.2,64.0,29.94,NE,42,0.0,4.0,57,0.00,,,0.00,weatherlink.com 1.10,2013-07-20 16:51:00,
2013-07-20 12:06:00,81.8,65.0,29.93,NW,309,3.0,5.0,56,0.00,,,0.00,weatherlink.com 1.10,2013-07-20 17:06:00,
2013-07-20 12:21:00,82.1,65.0,29.94,SW,230,0.0,2.0,57,0.00,,,0.00,weatherlink.com 1.10,2013-07-20 17:21:00,
2013-07-20 12:36:00,82.2,64.0,29.93,NNE,12,0.0,2.0,55,0.00,,,0.00,weatherlink.com 1.10,2013-07-20 17:36:00,
2013-07-20 12:51:00,81.3,64.0,29.93,NNE,30,0.0,4.0,56,0.00,,,0.00,weatherlink.com 1.10,2013-07-20 17:51:00,
2013-07-20 13:06:00,82.4,67.0,29.93,WSW,257,0.0,4.0,59,0.00,,,0.00,weatherlink.com 1.10,2013-07-20 18:06:00,
2013-07-20 13:36:00,83.0,65.0,29.93,WSW,249,0.0,7.0,55,0.00,,,0.00,weatherlink.com 1.10,2013-07-20 18:36:00,
2013-07-20 13:51:00,83.4,65.0,29.92,NE,36,0.0,3.0,54,0.00,,,0.00,weatherlink.com 1.10,2013-07-20 18:51:00,
2013-07-20 14:06:00,83.3,65.0,29.91,NE,42,0.0,3.0,55,0.00,,,0.00,weatherlink.com 1.10,2013-07-20 19:06:00,
2013-07-20 14:21:00,83.2,66.0,29.91,ESE,102,0.0,0.0,57,0.00,,,0.00,weatherlink.com 1.10,2013-07-20 19:21:00,
2013-07-20 14:36:00,83.5,66.0,29.91,NNW,338,0.0,2.0,56,0.00,,,0.00,weatherlink.com 1.10,2013-07-20 19:36:00,
2013-07-20 14:51:00,83.6,68.0,29.90,West,275,0.0,6.0,59,0.00,,,0.00,weatherlink.com 1.10,2013-07-20 19:51:00,
2013-07-20 15:06:00,83.4,67.0,29.90,SW,226,1.0,7.0,57,0.00,,,0.00,weatherlink.com 1.10,2013-07-20 20:06:00,
2013-07-20 15:21:00,82.8,66.0,29.90,SW,233,2.0,5.0,57,0.00,,,0.00,weatherlink.com 1.10,2013-07-20 20:21:00,
2013-07-20 15:51:00,82.9,67.0,29.90,SW,228,0.0,5.0,59,0.00,,,0.00,weatherlink.com 1.10,2013-07-20 20:51:00,
2013-07-20 16:06:00,83.2,67.0,29.89,SW,229,0.0,3.0,59,0.00,,,0.00,weatherlink.com 1.10,2013-07-20 21:06:00,
2013-07-20 16:21:00,83.4,67.0,29.89,SSW,212,3.0,4.0,58,0.00,,,0.00,weatherlink.com 1.10,2013-07-20 21:21:00,
2013-07-20 16:36:00,83.3,67.0,29.88,ESE,121,0.0,2.0,58,0.00,,,0.00,weatherlink.com 1.10,2013-07-20 21:36:00,
2013-07-20 16:51:00,83.1,67.0,29.88,ESE,123,1.0,2.0,59,0.00,,,0.00,weatherlink.com 1.10,2013-07-20 21:51:00,
2013-07-20 17:21:00,81.1,69.0,29.88,ESE,107,0.0,0.0,66,0.00,,,0.00,weatherlink.com 1.10,2013-07-20 22:21:00,
2013-07-20 17:36:00,80.5,69.0,29.88,ESE,107,0.0,0.0,68,0.00,,,0.00,weatherlink.com 1.10,2013-07-20 22:36:00,
2013-07-20 18:06:00,78.8,68.0,29.89,ESE,107,0.0,0.0,70,0.00,,,0.00,weatherlink.com 1.10,2013-07-20 23:06:00,
2013-07-20 18:36:00,77.8,68.0,29.89,ENE,67,0.0,0.0,72,0.00,,,0.00,weatherlink.com 1.10,2013-07-20 23:36:00,
2013-07-20 19:21:00,76.0,68.0,29.90,ENE,67,0.0,1.0,76,0.00,,,0.00,weatherlink.com 1.10,2013-07-21 00:21:00,
2013-07-20 19:36:00,75.1,67.0,29.91,ENE,67,0.0,1.0,77,0.00,,,0.00,weatherlink.com 1.10,2013-07-21 00:36:00,
2013-07-20 20:06:00,73.7,68.0,29.91,ENE,68,0.0,0.0,82,0.00,,,0.00,weatherlink.com 1.10,2013-07-21 01:06:00,
2013-07-20 20:22:00,73.1,68.0,29.92,ENE,68,0.0,0.0,83,0.00,,,0.00,weatherlink.com 1.10,2013-07-21 01:22:00,
2013-07-20 20:37:00,72.5,67.0,29.92,ENE,68,0.0,0.0,84,0.00,,,0.00,weatherlink.com 1.10,2013-07-21 01:37:00,
2013-07-20 20:52:00,72.1,67.0,29.93,ENE,68,0.0,0.0,85,0.00,,,0.00,weatherlink.com 1.10,2013-07-21 01:52:00,
2013-07-20 21:07:00,71.7,67.0,29.94,ENE,68,0.0,1.0,85,0.00,,,0.00,weatherlink.com 1.10,2013-07-21 02:07:00,
2013-07-20 21:22:00,71.2,67.0,29.94,ENE,68,0.0,0.0,86,0.00,,,0.00,weatherlink.com 1.10,2013-07-21 02:22:00,
2013-07-20 21:37:00,70.7,67.0,29.94,ENE,68,0.0,0.0,87,0.00,,,0.00,weatherlink.com 1.10,2013-07-21 02:37:00,
2013-07-20 21:52:00,70.3,66.0,29.94,ENE,68,0.0,0.0,87,0.00,,,0.00,weatherlink.com 1.10,2013-07-21 02:52:00,
2013-07-20 22:07:00,70.1,66.0,29.94,ENE,68,0.0,0.0,87,0.00,,,0.00,weatherlink.com 1.10,2013-07-21 03:07:00,
2013-07-20 22:22:00,70.0,66.0,29.94,ENE,68,0.0,0.0,87,0.00,,,0.00,weatherlink.com 1.10,2013-07-21 03:22:00,
2013-07-20 22:37:00,69.9,66.0,29.94,ENE,68,0.0,0.0,87,0.00,,,0.00,weatherlink.com 1.10,2013-07-21 03:37:00,
2013-07-20 22:52:00,69.9,66.0,29.95,ENE,68,0.0,1.0,87,0.00,,,0.00,weatherlink.com 1.10,2013-07-21 03:52:00,
2013-07-20 23:07:00,69.7,66.0,29.95,ENE,68,0.0,0.0,88,0.00,,,0.00,weatherlink.com 1.10,2013-07-21 04:07:00,
2013-07-20 23:22:00,69.4,66.0,29.95,ENE,68,0.0,0.0,88,0.00,,,0.00,weatherlink.com 1.10,2013-07-21 04:22:00,
2013-07-20 23:37:00,69.2,66.0,29.95,ENE,67,0.0,2.0,88,0.00,,,0.00,weatherlink.com 1.10,2013-07-21 04:37:00,
2013-07-20 23:52:00,69.0,66.0,29.95,ENE,67,0.0,0.0,89,0.00,,,0.00,weatherlink.com 1.10,2013-07-21 04:52:00,